Location: Beneden-Haastrecht
(52.0012°N, 4.7557°E)
Time: 14:35:16
(UTC+00:00)

USA 215 - Pass Details

Date: 24 October 2020
Orbit: 1102 x 1106 km, 123.0° (Epoch: 23 November)

Event Time Altitude Azimuth Distance (km) Brightness Sun altitude
Exits shadow 20:04:45 55° 226° (SW) 1,305 3.6 -33.5°
Drops below altitude 10° 20:10:58 10° 297° (WNW) 2,966 6.3 -34.3°
Sets 20:13:32 0° 301° (WNW) 3,927 7.2 -34.7°
